• In United Kingdom
  • List of Countries
  • For 7 days
  • Water Temperature
  • Satellite Maps
  • Weather Map
  • Weather Widgets
  • user-avatar
    Login

    Hourly Weather Kagul

    Today, 17 January, Wednesday

    Time Temperature Precipitation Wind Pressure Humidity
    00:00 -7°C° 0 mm 5 mps 751 mmHg 85%
    01:00 -6°C° 0 mm 5 mps 751 mmHg 87%
    02:00 -6°C° 0 mm 5 mps 750 mmHg 89%
    03:00 -5°C° 0 mm 5 mps 750 mmHg 90%
    04:00 -5°C° 0 mm 5 mps 749 mmHg 90%
    05:00 -4°C° 0 mm 5 mps 748 mmHg 91%
    06:00 -4°C° 0.1 mm 5 mps 748 mmHg 91%
    07:00 -4°C° 0.1 mm 5 mps 748 mmHg 91%
    08:00 -4°C° 0.1 mm 5 mps 747 mmHg 90%
    09:00 -2°C° 0 mm 5 mps 747 mmHg 87%
    10:00 -1°C° 0 mm 5 mps 746 mmHg 83%
    11:00 0°C° 0 mm 5 mps 746 mmHg 80%
    12:00 0°C° 0.2 mm 5 mps 745 mmHg 80%
    13:00 +1°C° 0.2 mm 6 mps 744 mmHg 81%
    14:00 +1°C° 0.2 mm 6 mps 743 mmHg 82%
    15:00 +1°C° 0.5 mm 5 mps 742 mmHg 84%
    16:00 +1°C° 0.5 mm 5 mps 742 mmHg 86%
    17:00 +1°C° 0.5 mm 4 mps 741 mmHg 89%
    18:00 +1°C° 0.5 mm 4 mps 740 mmHg 90%
    19:00 +1°C° 0.5 mm 4 mps 739 mmHg 91%
    20:00 +1°C° 0.5 mm 4 mps 737 mmHg 93%
    21:00 +2°C° 2.2 mm 3 mps 737 mmHg 94%
    22:00 +2°C° 2.2 mm 3 mps 737 mmHg 94%
    23:00 +2°C° 2.2 mm 3 mps 736 mmHg 95%

    Tomorrow, 18 January, Thursday

    Time Temperature Precipitation Wind Pressure Humidity
    00:00 0°C° 0.7 mm 5 mps 736 mmHg 93%
    01:00 -1°C° 0.7 mm 7 mps 736 mmHg 90%
    02:00 -1°C° 0.7 mm 8 mps 736 mmHg 87%
    03:00 -1°C° 0.2 mm 9 mps 737 mmHg 85%
    04:00 -2°C° 0.2 mm 10 mps 737 mmHg 82%
    05:00 -2°C° 0.2 mm 11 mps 737 mmHg 80%
    06:00 -2°C° 0.1 mm 11 mps 738 mmHg 77%
    07:00 -2°C° 0.1 mm 11 mps 739 mmHg 75%
    08:00 -2°C° 0.1 mm 12 mps 740 mmHg 72%
    09:00 -2°C° 0 mm 12 mps 741 mmHg 72%
    10:00 -2°C° 0 mm 12 mps 742 mmHg 71%
    11:00 -2°C° 0 mm 12 mps 743 mmHg 70%
    12:00 -1°C° 0 mm 12 mps 744 mmHg 69%
    13:00 -1°C° 0 mm 12 mps 745 mmHg 68%
    14:00 -1°C° 0 mm 11 mps 746 mmHg 66%
    15:00 0°C° 0 mm 10 mps 746 mmHg 67%
    16:00 -1°C° 0 mm 9 mps 747 mmHg 68%
    17:00 -1°C° 0 mm 8 mps 748 mmHg 69%
    18:00 -2°C° 0 mm 8 mps 749 mmHg 70%
    19:00 -2°C° 0 mm 7 mps 750 mmHg 71%
    20:00 -2°C° 0 mm 6 mps 750 mmHg 71%
    21:00 -3°C° 0 mm 6 mps 751 mmHg 71%
    22:00 -2°C° 0 mm 5 mps 751 mmHg 71%
    23:00 -2°C° 0 mm 5 mps 752 mmHg 71%

    Day after tomorrow, 19 January, Friday

    Time Temperature Precipitation Wind Pressure Humidity
    00:00 -2°C° 0 mm 4 mps 752 mmHg 72%
    01:00 -3°C° 0 mm 4 mps 752 mmHg 72%
    02:00 -3°C° 0 mm 4 mps 751 mmHg 72%
    03:00 -2°C° 0 mm 4 mps 751 mmHg 70%
    04:00 -2°C° 0 mm 5 mps 751 mmHg 67%
    05:00 -2°C° 0 mm 5 mps 750 mmHg 65%
    06:00 -2°C° 0 mm 5 mps 750 mmHg 66%
    07:00 -2°C° 0 mm 6 mps 750 mmHg 67%
    08:00 -2°C° 0 mm 6 mps 750 mmHg 68%
    09:00 -1°C° 0.1 mm 6 mps 750 mmHg 68%
    10:00 -1°C° 0.1 mm 7 mps 750 mmHg 67%
    11:00 0°C° 0.1 mm 7 mps 750 mmHg 67%
    12:00 +2°C° 0.1 mm 7 mps 749 mmHg 64%
    13:00 +3°C° 0.1 mm 7 mps 749 mmHg 61%
    14:00 +4°C° 0.1 mm 7 mps 749 mmHg 59%
    15:00 +4°C° 0 mm 6 mps 750 mmHg 62%
    16:00 +3°C° 0 mm 6 mps 750 mmHg 65%
    17:00 +3°C° 0 mm 5 mps 751 mmHg 68%
    18:00 +2°C° 0 mm 5 mps 751 mmHg 71%
    19:00 +3°C° 0 mm 4 mps 752 mmHg 73%
    20:00 +2°C° 0 mm 3 mps 752 mmHg 76%
    21:00 +2°C° 0 mm 3 mps 753 mmHg 75%
    22:00 +3°C° 0 mm 2 mps 753 mmHg 75%
    23:00 +3°C° 0 mm 2 mps 754 mmHg 74%

    20 January, Saturday

    Time Temperature Precipitation Wind Pressure Humidity
    00:00 +4°C° 0 mm 1 mps 754 mmHg 75%
    01:00 +4°C° 0 mm 1 mps 754 mmHg 76%
    02:00 +4°C° 0 mm 1 mps 754 mmHg 77%
    03:00 +4°C° 0.4 mm 1 mps 754 mmHg 79%
    04:00 +4°C° 0.4 mm 1 mps 754 mmHg 81%
    05:00 +3°C° 0.4 mm 1 mps 754 mmHg 83%
    06:00 +3°C° 0.4 mm 1 mps 754 mmHg 85%
    07:00 +2°C° 0.4 mm 2 mps 754 mmHg 86%
    08:00 +2°C° 0.4 mm 2 mps 754 mmHg 88%
    09:00 +1°C° 0.6 mm 3 mps 754 mmHg 88%
    10:00 +1°C° 0.6 mm 3 mps 753 mmHg 88%
    11:00 +1°C° 0.6 mm 4 mps 753 mmHg 87%
    12:00 +1°C° 0.4 mm 4 mps 752 mmHg 87%
    13:00 +3°C° 0.4 mm 4 mps 752 mmHg 87%
    14:00 +2°C° 0.4 mm 5 mps 751 mmHg 87%
    15:00 +3°C° 1.2 mm 4 mps 750 mmHg 90%
    16:00 +1°C° 1.2 mm 4 mps 750 mmHg 92%
    17:00 +2°C° 1.2 mm 3 mps 750 mmHg 94%
    18:00 +2°C° 0.7 mm 3 mps 749 mmHg 95%
    19:00 +2°C° 0.7 mm 3 mps 749 mmHg 96%
    20:00 +2°C° 0.7 mm 2 mps 749 mmHg 97%
    21:00 +1°C° 0.1 mm 3 mps 749 mmHg 96%
    22:00 +1°C° 0.1 mm 3 mps 748 mmHg 95%
    23:00 0°C° 0.1 mm 3 mps 748 mmHg 95%

    21 January, Sunday

    Time Temperature Precipitation Wind Pressure Humidity
    00:00 -1°C° 0.4 mm 4 mps 748 mmHg 94%
    01:00 -1°C° 0.4 mm 5 mps 749 mmHg 93%
    02:00 -1°C° 0.4 mm 5 mps 749 mmHg 92%
    03:00 -1°C° 0.3 mm 5 mps 749 mmHg 92%
    04:00 -3°C° 0.3 mm 6 mps 749 mmHg 91%
    05:00 -3°C° 0.3 mm 6 mps 749 mmHg 91%
    06:00 -3°C° 0.4 mm 6 mps 750 mmHg 91%
    07:00 -3°C° 0.4 mm 6 mps 750 mmHg 91%
    08:00 -4°C° 0.4 mm 6 mps 751 mmHg 90%
    09:00 -3°C° 0 mm 6 mps 752 mmHg 89%
    10:00 -3°C° 0 mm 6 mps 753 mmHg 88%
    11:00 -3°C° 0 mm 6 mps 754 mmHg 86%
    12:00 -2°C° 0 mm 6 mps 754 mmHg 85%
    13:00 -1°C° 0 mm 5 mps 754 mmHg 84%
    14:00 -1°C° 0 mm 5 mps 755 mmHg 83%
    15:00 -2°C° 0 mm 4 mps 755 mmHg 85%
    16:00 -1°C° 0 mm 3 mps 756 mmHg 86%
    17:00 -2°C° 0 mm 2 mps 757 mmHg 88%
    18:00 -2°C° 0 mm 2 mps 757 mmHg 88%
    19:00 -3°C° 0 mm 2 mps 758 mmHg 89%
    20:00 -3°C° 0 mm 2 mps 759 mmHg 89%
    21:00 -3°C° 0 mm 2 mps 759 mmHg 88%
    22:00 -4°C° 0 mm 2 mps 759 mmHg 88%
    23:00 -4°C° 0 mm 2 mps 759 mmHg 87%

    22 January, Monday

    Time Temperature Precipitation Wind Pressure Humidity
    00:00 -5°C° 0 mm 3 mps 759 mmHg 86%
    01:00 -5°C° 0 mm 3 mps 759 mmHg 85%
    02:00 -5°C° 0 mm 3 mps 759 mmHg 84%
    03:00 -5°C° 0 mm 4 mps 759 mmHg 84%
    04:00 -5°C° 0 mm 4 mps 760 mmHg 83%
    05:00 -5°C° 0 mm 4 mps 760 mmHg 82%
    06:00 -5°C° 0 mm 4 mps 760 mmHg 83%
    07:00 -5°C° 0 mm 4 mps 760 mmHg 84%
    08:00 -5°C° 0 mm 4 mps 761 mmHg 84%
    09:00 -5°C° 0 mm 4 mps 761 mmHg 83%
    10:00 -5°C° 0 mm 5 mps 761 mmHg 81%
    11:00 -4°C° 0 mm 5 mps 761 mmHg 80%
    12:00 -4°C° 0 mm 5 mps 761 mmHg 79%
    13:00 -3°C° 0 mm 6 mps 761 mmHg 78%
    14:00 -3°C° 0 mm 6 mps 761 mmHg 78%
    15:00 -2°C° 0 mm 5 mps 761 mmHg 80%
    16:00 -4°C° 0 mm 5 mps 762 mmHg 82%
    17:00 -3°C° 0 mm 4 mps 762 mmHg 83%
    18:00 -4°C° 0 mm 4 mps 762 mmHg 85%
    19:00 -5°C° 0 mm 4 mps 763 mmHg 86%
    20:00 -5°C° 0 mm 4 mps 763 mmHg 87%
    21:00 -5°C° 0 mm 4 mps 763 mmHg 87%
    22:00 -7°C° 0 mm 4 mps 764 mmHg 87%
    23:00 -7°C° 0 mm 4 mps 764 mmHg 87%
    Show more